Hourly Data Report for September 06, 2018

SHEARWATER RCS
NOVA SCOTIA
Current Station Operator: ECCC - MSC

44°37'47.000" N
63°30'48.000" W
24.00 m
8205092
71264
AAW

Download Data

Hourly Data (September 2018)
Hourly Data Report for September 6, 2018
TIME Temp Definition
°C
Dew Point Definition
°C
Rel Hum Definition
%
Wind Dir Definition
10's deg

Wind Spd Definition
km/h
Visibility Definition
km
Stn Press Definition
kPa
Hmdx Definition


Wind Chill Definition


Weather Definition


00:00 18.3 14.8 80 25 5   101.82     LegendNANA
01:00 17.8 14.2 79 25 6   101.80     LegendNANA
02:00 18.3 13.8 75 22 15   101.76     LegendNANA
03:00 17.7 12.5 71 23 10   101.73     LegendNANA
04:00 17.4 11.7 69 23 11   101.70     LegendNANA
05:00 17.5 12.4 72 20 8   101.67     LegendNANA
06:00 17.8 12.7 72 22 10   101.63     LegendNANA
07:00 19.5 13.5 68 21 20   101.58     LegendNANA
08:00 21.4 13.1 59 23 18   101.53     LegendNANA
09:00 22.7 14.9 62 22 22   101.48 27   LegendNANA
10:00 23.6 14.3 56 22 26   101.39 27   LegendNANA
11:00 24.4 14.5 54 22 22   101.34 28   LegendNANA
12:00 25.4 15.0 53 22 22   101.29 29   LegendNANA
13:00 26.1 15.8 53 22 20   101.23 31   LegendNANA
14:00 27.0 17.3 56 22 14   101.17 32   LegendNANA
15:00 27.3 18.2 58 21 18   101.10 33   LegendNANA
16:00 26.7 18.8 62 22 16   101.09 33   LegendNANA
17:00 25.1 19.0 69 23 10   101.11 32   LegendNANA
18:00 24.0 19.1 74 25 3   101.14 31   LegendNANA
19:00 22.8 21.3 91 31 5   101.20 31   LegendNANA
20:00 22.4 20.9 91 28 2   101.27 31   LegendNANA
21:00 22.3 20.6 90 33 7   101.34 30   LegendNANA
22:00 21.3 19.5 90 36 12   101.40 28   LegendNANA
23:00 20.0 18.5 91 34 8   101.46 26   LegendNANA

Notes on Data Quality.

Legend

  • E = Estimated
  • M = Missing
  • NA = Not Available*
  • [empty] = Indicates an unobserved value
Date modified: